DW4559 Weather Reports


Display with metric or nautical units.
time (UTC)temp
F
wind
direction
speed
MPH
gust
MPH
rain 1hr
in
rain 24hr
in
rain mn
in
humidity
%
barometer
mb
20260510174404 71 325 0.0 3.0 0.00 0.00 0.00 72 1007.8
20260510173905 70 332 2.0 3.0 0.00 0.00 0.00 74 1007.8
20260510173405 70 333 2.0 6.0 0.00 0.00 0.00 75 1007.8
20260510172904 69 156 1.0 6.0 0.00 0.00 0.00 76 1007.8
20260510172404 70 320 3.0 6.0 0.00 0.00 0.00 77 1007.7
20260510171405 69 318 1.0 3.0 0.00 0.00 0.00 76 1007.6
20260510170904 69 322 2.0 2.0 0.00 0.00 0.00 76 1007.7
20260510170405 68 341 0.0 3.0 0.00 0.00 0.00 78 1007.9
20260510165905 68 13 1.0 5.0 0.00 0.00 0.00 78 1007.9
20260510164905 69 331 0.0 3.0 0.00 0.00 0.00 78 1007.8
20260510164405 68 355 1.0 5.0 0.00 0.00 0.00 79 1007.7
20260510163904 68 4 0.0 2.0 0.00 0.00 0.00 80 1007.9
20260510163405 67 316 1.0 2.0 0.00 0.00 0.00 82 1007.9
20260510162904 66 339 0.0 6.0 0.00 0.00 0.00 82 1007.9
20260510162405 66 346 0.0 3.0 0.00 0.00 0.00 83 1008.0
20260510161404 65 338 1.0 2.0 0.00 0.00 0.00 82 1008.0
20260510160905 64 345 0.0 2.0 0.00 0.00 0.00 86 1008.0
20260510160405 63 265 0.0 3.0 0.00 0.00 0.00 89 1008.2
20260510155405 63 172 0.0 2.0 0.00 0.00 0.00 87 1008.3
20260510154905 63 202 1.0 3.0 0.00 0.00 0.00 89 1008.3
20260510154405 62 333 0.0 2.0 0.00 0.00 0.00 89 1008.5
20260510153905 62 332 0.0 2.0 0.00 0.00 0.00 91 1008.5
20260510153405 62 330 1.0 2.0 0.00 0.00 0.00 90 1008.6
20260510151405 60 329 0.0 2.0 0.00 0.00 0.00 93 1008.5
20260510145405 60 130 1.0 3.0 0.00 0.00 0.00 94 1008.4
20260510144905 59 285 0.0 1.0 0.00 0.00 0.00 95 1008.3
20260510144404 59 337 1.0 2.0 0.00 0.00 0.00 96 1008.2
20260510143905 58 309 1.0 2.0 0.00 0.00 0.00 96 1008.2
20260510143405 58 316 0.0 0.0 0.00 0.00 0.00 97 1008.1
20260510142905 58 316 0.0 0.0 0.00 0.00 0.00 98 1008.2
20260510141404 58 13 0.0 1.0 0.00 0.00 0.00 98 1008.0
20260510140905 58 338 0.0 0.0 0.00 0.00 0.00 98 1008.1
20260510140405 58 338 0.0 1.0 0.00 0.00 0.00 98 1008.1
20260510135905 58 353 0.0 0.0 0.00 0.00 0.00 99 1008.0
20260510135405 58 353 0.0 0.0 0.00 0.00 0.00 99 1008.0
20260510134904 57 353 0.0 1.0 0.00 0.00 0.00 99 1007.9
20260510134405 57 51 0.0 1.0 0.00 0.00 0.00 99 1007.9
20260510133904 57 10 1.0 1.0 0.00 0.00 0.00 99 1007.9
20260510132904 57 332 0.0 1.0 0.00 0.00 0.00 99 1007.8
20260510131905 56 332 0.0 1.0 0.00 0.00 0.00 99 1007.8
20260510131404 56 346 0.0 1.0 0.00 0.00 0.00 99 1007.7
20260510130904 56 340 0.0 1.0 0.00 0.00 0.00 99 1007.6
20260510130405 55 357 0.0 0.0 0.00 0.00 0.00 99 1007.6
20260510125904 55 357 0.0 0.0 0.00 0.00 0.00 99 1007.6
20260510125405 55 356 1.0 1.0 0.00 0.00 0.00 99 1007.5
20260510124905 54 70 0.0 3.0 0.00 0.00 0.00 99 1007.4
20260510123405 54 128 1.0 2.0 0.00 0.00 0.00 99 1007.2
20260510122904 54 91 1.0 2.0 0.00 0.00 0.00 99 1007.2
20260510122405 53 138 0.0 1.0 0.00 0.00 0.00 99 1007.3
20260510121904 53 125 1.0 2.0 0.00 0.00 0.00 99 1007.0
20260510120905 53 128 1.0 2.0 0.00 0.00 0.00 99 1007.3
20260510120404 53 138 1.0 3.0 0.00 0.00 0.00 99 1007.3
20260510115905 53 130 1.0 2.0 0.00 0.00 0.00 99 1007.1
20260510115405 53 59 1.0 3.0 0.00 0.00 0.00 99 1007.1
20260510114904 52 97 0.0 2.0 0.00 0.00 0.00 99 1007.0
20260510114405 52 54 0.0 1.0 0.00 0.00 0.00 99 1007.0
20260510113904 52 68 0.0 2.0 0.00 0.00 0.00 99 1007.1
20260510113405 52 128 0.0 2.0 0.00 0.00 0.00 99 1007.0
20260510112905 52 94 2.0 5.0 0.00 0.00 0.00 99 1007.0
20260510111904 52 117 0.0 2.0 0.00 0.00 0.00 99 1006.9
20260510111405 52 97 0.0 2.0 0.00 0.00 0.00 99 1007.0
20260510110404 51 72 0.0 2.0 0.00 0.00 0.00 99 1007.1
20260510105905 51 79 0.0 1.0 0.00 0.00 0.00 99 1007.1
20260510105404 51 35 0.0 2.0 0.00 0.00 0.00 99 1007.1
20260510104905 51 93 1.0 2.0 0.00 0.00 0.00 99 1007.1
20260510104404 51 131 2.0 2.0 0.00 0.00 0.00 99 1007.1
20260510103905 51 65 0.0 1.0 0.00 0.00 0.00 99 1007.1
20260510103404 51 77 1.0 2.0 0.00 0.00 0.00 99 1007.0
20260510102905 51 100 0.0 2.0 0.00 0.00 0.00 99 1007.0
20260510102404 51 119 0.0 1.0 0.00 0.00 0.00 99 1007.2
20260510101904 51 44 0.0 2.0 0.00 0.00 0.00 99 1007.1
20260510101405 51 1 0.0 1.0 0.00 0.00 0.00 99 1007.1
20260510100904 51 60 0.0 1.0 0.00 0.00 0.00 99 1007.1
20260510100405 51 132 1.0 1.0 0.00 0.00 0.00 99 1007.1
20260510094904 52 356 0.0 2.0 0.00 0.00 0.00 99 1007.3
20260510094405 52 107 1.0 3.0 0.00 0.00 0.00 99 1007.4
20260510093905 52 346 1.0 2.0 0.00 0.00 0.00 99 1007.3
20260510093404 52 316 0.0 1.0 0.00 0.00 0.00 99 1007.3
20260510092904 52 66 2.0 3.0 0.00 0.00 0.00 99 1007.1
20260510092404 52 15 1.0 1.0 0.00 0.00 0.00 99 1007.2
20260510091905 52 291 0.0 1.0 0.00 0.00 0.00 99 1006.9
20260510090404 52 103 0.0 0.0 0.00 0.00 0.00 99 1006.4
20260510085904 52 118 0.0 1.0 0.00 0.00 0.00 99 1006.3
20260510085405 53 123 0.0 1.0 0.00 0.00 0.00 99 1006.2
20260510084904 53 74 1.0 2.0 0.00 0.00 0.00 99 1006.3
20260510084404 53 68 0.0 0.0 0.00 0.00 0.00 99 1006.4
20260510083905 53 68 0.0 0.0 0.00 0.00 0.00 99 1006.4
20260510083404 53 68 0.0 0.0 0.00 0.00 0.00 99 1006.5
20260510082904 53 68 0.0 0.0 0.00 0.00 0.00 99 1006.4
20260510081905 53 68 0.0 0.0 0.00 0.00 0.00 99 1006.3
20260510081404 53 68 0.0 0.0 0.00 0.00 0.00 99 1006.3
20260510080405 53 68 0.0 0.0 0.00 0.00 0.00 99 1006.1
20260510075905 53 68 0.0 0.0 0.00 0.00 0.00 99 1006.1
20260510075404 52 68 0.0 0.0 0.00 0.00 0.00 99 1006.3
20260510074904 52 68 0.0 0.0 0.00 0.00 0.00 99 1006.3
20260510074404 52 68 0.0 0.0 0.00 0.00 0.00 99 1006.4
20260510073405 52 68 0.0 0.0 0.00 0.00 0.00 99 1006.3
20260510072904 52 68 0.0 0.0 0.00 0.00 0.00 99 1006.2
20260510071905 52 68 0.0 0.0 0.00 0.00 0.00 99 1006.2
20260510071404 52 68 1.0 2.0 0.00 0.00 0.00 99 1006.1
20260510070905 52 33 0.0 0.0 0.00 0.00 0.00 99 1006.0
20260510070404 52 33 0.0 0.0 0.00 0.00 0.00 99 1005.9
20260510065905 52 33 0.0 0.0 0.00 0.00 0.00 99 1005.9
20260510064904 53 33 0.0 0.0 0.00 0.00 0.00 99 1005.9
20260510064405 53 33 1.0 1.0 0.00 0.00 0.00 99 1005.8
20260510063904 53 150 0.0 0.0 0.00 0.00 0.00 99 1005.9
20260510063404 53 150 0.0 0.0 0.00 0.00 0.00 99 1005.8
20260510062904 53 150 0.0 1.0 0.00 0.00 0.00 99 1005.9
20260510062404 53 77 0.0 0.0 0.00 0.00 0.00 99 1005.9
20260510061905 53 77 0.0 0.0 0.00 0.00 0.00 99 1005.9
20260510061404 53 88 0.0 1.0 0.00 0.00 0.00 99 1005.9
20260510060905 53 123 0.0 0.0 0.00 0.00 0.00 99 1005.9
20260510060404 53 123 0.0 1.0 0.00 0.00 0.00 99 1005.9
20260510055904 53 339 0.0 0.0 0.00 0.00 0.00 99 1005.9
20260510055404 53 339 0.0 0.0 0.00 0.00 0.00 99 1006.0
20260510054905 53 339 0.0 1.0 0.00 0.00 0.00 99 1006.0
20260510054404 53 338 1.0 2.0 0.00 0.00 0.00 99 1005.9
20260510053404 53 260 0.0 0.0 0.00 0.00 0.00 99 1006.1
20260510052905 53 260 0.0 0.0 0.00 0.00 0.00 99 1006.0
20260510051404 53 309 0.0 1.0 0.00 0.00 0.00 99 1006.1
20260510050905 53 339 0.0 0.0 0.00 0.00 0.00 99 1006.2
20260510050404 53 339 0.0 0.0 0.00 0.00 0.00 99 1006.2
20260510045904 53 339 0.0 1.0 0.00 0.00 0.00 99 1006.2
20260510045404 53 39 0.0 1.0 0.00 0.00 0.00 99 1006.2
20260510043904 53 342 0.0 1.0 0.00 0.00 0.00 99 1006.1
20260510042904 53 343 0.0 0.0 0.00 0.00 0.00 99 1006.1
20260510042404 53 343 0.0 1.0 0.00 0.00 0.00 99 1006.1
20260510041904 53 135 0.0 2.0 0.00 0.00 0.00 99 1006.0
20260510040904 53 342 0.0 0.0 0.00 0.00 0.00 99 1005.8
20260510040404 53 342 0.0 0.0 0.00 0.00 0.00 99 1005.7
20260510035905 53 342 0.0 1.0 0.00 0.00 0.00 99 1005.6
20260510035404 53 44 0.0 1.0 0.00 0.00 0.00 99 1005.8
20260510034905 53 59 0.0 0.0 0.00 0.00 0.00 99 1005.8
20260510034405 53 59 0.0 1.0 0.00 0.00 0.00 99 1005.8
20260510033904 53 84 0.0 0.0 0.00 0.00 0.00 99 1005.8
20260510033405 53 84 0.0 1.0 0.00 0.00 0.00 99 1005.7
20260510032904 53 69 0.0 0.0 0.00 0.00 0.00 99 1005.7
20260510032404 53 69 0.0 1.0 0.00 0.00 0.00 99 1005.8
20260510031904 53 95 0.0 0.0 0.00 0.00 0.00 99 1005.8
20260510031404 53 95 1.0 3.0 0.00 0.00 0.00 99 1005.8
20260510030904 53 17 0.0 2.0 0.00 0.00 0.00 99 1005.9
20260510030404 53 158 1.0 2.0 0.00 0.00 0.00 99 1006.0
20260510025905 53 147 1.0 3.0 0.00 0.00 0.00 99 1006.0
20260510025404 53 30 0.0 0.0 0.00 0.00 0.00 99 1005.9
20260510024905 53 30 0.0 1.0 0.00 0.00 0.00 99 1005.9
20260510024404 53 319 0.0 0.0 0.00 0.00 0.00 99 1005.9
20260510023904 53 319 0.0 2.0 0.00 0.00 0.00 99 1005.9
20260510022905 53 347 0.0 1.0 0.00 0.00 0.00 99 1005.8
20260510022404 53 0 0.0 1.0 0.00 0.00 0.00 99 1005.8
20260510021904 53 114 0.0 2.0 0.00 0.00 0.00 99 1005.8
20260510020904 53 317 0.0 1.0 0.00 0.00 0.00 99 1005.7
20260510020405 53 81 1.0 1.0 0.00 0.00 0.00 99 1005.8
20260510015904 53 69 0.0 1.0 0.00 0.00 0.00 99 1005.8
20260510015404 53 127 0.0 0.0 0.00 0.00 0.00 99 1005.8
20260510014904 53 127 1.0 2.0 0.00 0.00 0.00 99 1005.8
20260510014404 53 103 0.0 0.0 0.00 0.00 0.00 99 1005.9
20260510012404 52 334 0.0 0.0 0.00 0.00 0.00 99 1005.7
20260510011904 52 334 0.0 0.0 0.00 0.00 0.00 99 1005.7
20260510010904 52 347 0.0 0.0 0.00 0.00 0.00 99 1005.6
20260510005904 53 63 0.0 1.0 0.00 0.00 0.00 99 1005.6
20260510005404 53 121 0.0 1.0 0.00 0.00 0.00 99 1005.5
20260510004905 53 168 0.0 0.0 0.00 0.00 0.00 99 1005.4
20260510004404 53 168 0.0 1.0 0.00 0.00 0.00 99 1005.3
20260510003904 53 133 0.0 1.0 0.00 0.00 0.00 99 1005.3
20260510003405 53 142 1.0 2.0 0.00 0.00 0.00 99 1005.1
20260510002905 53 121 1.0 2.0 0.00 0.00 0.00 99 1005.1
20260510002404 53 116 1.0 2.0 0.00 0.00 0.00 99 1005.1
20260510001904 53 132 0.0 1.0 0.00 0.00 0.00 99 1005.2
20260510001404 53 131 1.0 2.0 0.00 0.00 0.00 99 1005.2
20260510000404 53 146 0.0 1.0 0.00 0.00 0.00 99 1005.2
20260509235904 53 114 0.0 3.0 0.00 0.00 0.00 99 1005.1
20260509235404 53 91 2.0 3.0 0.00 0.00 0.00 99 1005.0
20260509234904 53 138 1.0 2.0 0.00 0.00 0.00 99 1005.5
20260509234405 53 146 1.0 2.0 0.00 0.00 0.00 100 1005.6
20260509233904 53 146 2.0 2.0 0.00 0.00 0.00 100 1005.4
20260509233404 53 135 1.0 3.0 0.00 0.00 0.00 100 1005.5
20260509232904 53 320 0.0 1.0 0.00 0.00 0.00 100 1005.7
20260509232404 53 316 0.0 2.0 0.00 0.00 0.00 100 1006.0
20260509231905 54 340 1.0 6.0 0.00 0.00 0.00 99 1005.7
20260509231404 54 312 2.0 6.0 0.00 0.00 0.00 99 1006.2
20260509230904 54 323 2.0 2.0 0.00 0.00 0.00 99 1005.7
20260509230404 54 335 1.0 2.0 0.00 0.00 0.00 99 1005.6
20260509225904 54 332 0.0 1.0 0.00 0.00 0.00 99 1005.5
20260509225405 54 283 0.0 0.0 0.00 0.00 0.00 99 1005.5
20260509224904 54 283 0.0 0.0 0.00 0.00 0.00 99 1005.5
20260509224404 54 330 0.0 1.0 0.00 0.00 0.00 99 1005.6
20260509223904 53 126 1.0 2.0 0.00 0.00 0.00 99 1005.6
20260509223404 53 139 0.0 1.0 0.00 0.00 0.00 98 1005.7
20260509222905 53 89 0.0 1.0 0.00 0.00 0.00 98 1005.8
20260509222404 53 26 0.0 0.0 0.00 0.00 0.00 98 1005.8
20260509221404 53 26 0.0 1.0 0.00 0.00 0.00 98 1006.1
20260509220904 53 354 1.0 2.0 0.00 0.00 0.00 98 1006.3
20260509220405 53 325 0.0 1.0 0.00 0.00 0.00 98 1006.3
20260509215904 53 67 0.0 1.0 0.00 0.00 0.00 98 1006.3
20260509215404 53 133 1.0 2.0 0.00 0.00 0.00 98 1006.3
20260509214904 53 357 0.0 1.0 0.00 0.00 0.00 98 1006.2
20260509214404 53 339 1.0 2.0 0.00 0.00 0.00 98 1006.3
20260509213904 53 57 0.0 1.0 0.00 0.00 0.00 98 1006.2
20260509212405 54 330 1.0 1.0 0.00 0.00 0.00 97 1006.5
20260509211404 54 338 1.0 3.0 0.00 0.00 0.00 96 1006.3
20260509210404 55 336 1.0 2.0 0.00 0.00 0.00 96 1006.2
20260509205904 55 341 1.0 3.0 0.00 0.00 0.00 96 1006.0
20260509205404 55 214 1.0 2.0 0.00 0.00 0.00 97 1006.1
20260509204905 55 351 1.0 2.0 0.00 0.00 0.00 97 1006.2
20260509203904 55 356 0.0 2.0 0.00 0.00 0.00 98 1006.2
20260509203404 55 354 0.0 3.0 0.00 0.00 0.00 98 1006.3
20260509202904 55 6 0.0 2.0 0.00 0.00 0.00 98 1006.3
20260509202404 55 337 1.0 2.0 0.00 0.00 0.00 98 1006.4
20260509201904 55 21 1.0 3.0 0.00 0.00 0.00 98 1006.6
20260509201404 55 314 1.0 2.0 0.00 0.00 0.00 98 1006.6
20260509200904 55 329 2.0 3.0 0.00 0.00 0.00 97 1006.5
20260509200405 55 339 1.0 2.0 0.00 0.00 0.00 97 1006.5
20260509195904 55 334 1.0 3.0 0.00 0.00 0.00 97 1006.6
20260509195404 55 3 1.0 3.0 0.00 0.00 0.00 97 1006.7
20260509194404 55 358 1.0 2.0 0.00 0.00 0.00 96 1006.6
20260509193905 55 356 2.0 3.0 0.00 0.00 0.00 96 1006.7
20260509193404 55 336 1.0 2.0 0.00 0.00 0.00 96 1006.8
20260509192904 55 343 1.0 6.0 0.00 0.00 0.00 96 1006.8
20260509191904 56 329 2.0 3.0 0.00 0.00 0.00 94 1006.8
20260509191404 56 339 1.0 3.0 0.00 0.00 0.00 94 1006.8
20260509190904 56 333 2.0 7.0 0.00 0.00 0.00 93 1006.7
20260509190405 56 335 1.0 3.0 0.00 0.00 0.00 94 1006.8
20260509185904 56 330 2.0 5.0 0.00 0.00 0.00 93 1006.9
20260509185404 56 313 2.0 6.0 0.00 0.00 0.00 93 1006.9
20260509184404 57 298 0.0 3.0 0.00 0.00 0.00 92 1006.6
20260509183904 57 333 2.0 6.0 0.00 0.00 0.00 91 1006.6
20260509183405 58 317 2.0 5.0 0.00 0.00 0.00 90 1006.5
20260509182904 59 322 2.0 6.0 0.00 0.00 0.00 88 1006.5
20260509182404 61 322 2.0 5.0 0.00 0.00 0.00 81 1006.8
20260509181904 63 0 2.0 5.0 0.00 0.00 0.00 78 1006.5
20260509181404 64 344 2.0 8.0 0.00 0.00 0.00 74 1006.3
20260509180904 65 8 2.0 6.0 0.00 0.00 0.00 72 1006.1
20260509175404 65 193 2.0 6.0 0.00 0.00 0.00 71 1006.0
20260509174904 65 322 3.0 6.0 0.00 0.00 0.00 71 1005.8